Вернуться в каталог

STARLINK-30812

АктивенСвязьVLEO
NORAD 58168·PAYLOAD·🇺🇸 United States

Запущен Oct 29, 2023 с Vandenberg Space Force Base

Loading…

Ближайшие Пролёты (ближайшие 24 часа)

TLE

СвежийSource: CelesTrak SupGP

Эпоха: Sep 15, 2026, 01:44 UTC

1 58168C 23166U   26258.07270833 -.00025201  00000+0 -74515-3 0  2583
2 58168  53.1597  58.8397 0001240  86.3963 157.4457 15.34378261    16

Отслеживайте STARLINK-30812 в реальном времени с AllMySat

Download on the App Store